This is the latest recevied weather packets stored in our database for station/object N9OJR. If no packets are shown the sender has not sent any weather packets the latest 10 day(s).
| Time | Temp. | Humidity | Pressure | Rain* | Wind** | Luminosity | Snow |
|---|---|---|---|---|---|---|---|
| 1777472875 | 12.22° C | 99% | 1006.4 hPa | 1.78 mm | - | 58 W/m² | - |
| 1777472571 | 12.22° C | 99% | 1006.7 hPa | 0 mm | - | 66 W/m² | - |
| 1777472269 | 12.22° C | 99% | 1006.3 hPa | 0 mm | - | 62 W/m² | - |
| 1777471964 | 12.22° C | 99% | 1006.5 hPa | 0 mm | - | 59 W/m² | - |
| 1777471661 | 12.22° C | 99% | 1006.4 hPa | 0 mm | - | 47 W/m² | - |
| 1777471358 | 12.22° C | 99% | 1006.5 hPa | 0 mm | - | 47 W/m² | - |
| 1777471054 | 12.22° C | 99% | 1006.5 hPa | 0 mm | - | 56 W/m² | - |
| 1777470750 | 12.22° C | 99% | 1006.4 hPa | 0 mm | - | 118 W/m² | - |
| 1777470447 | 12.22° C | 99% | 1006.4 hPa | 0 mm | - | 106 W/m² | - |
| 1777470144 | 12.22° C | 99% | 1006.8 hPa | 1.27 mm | - | 66 W/m² | - |
| 1777469840 | 12.22° C | 99% | 1007.1 hPa | 1.27 mm | - | 34 W/m² | - |
| 1777469536 | 12.22° C | 99% | 1007 hPa | 1.78 mm | - | 23 W/m² | - |
| 1777469231 | 12.22° C | 99% | 1006.9 hPa | 4.83 mm | - | 36 W/m² | - |
| 1777468930 | 12.22° C | 99% | 1007.1 hPa | 1.78 mm | - | 33 W/m² | - |
| 1777468622 | 12.22° C | 99% | 1007.1 hPa | 0 mm | - | 15 W/m² | - |
| 1777468319 | 12.22° C | 99% | 1007 hPa | 0 mm | - | 39 W/m² | - |
| 1777468015 | 12.22° C | 99% | 1006.8 hPa | 0 mm | - | 48 W/m² | - |
| 1777467710 | 12.22° C | 99% | 1006.9 hPa | 0 mm | - | 39 W/m² | - |
| 1777467406 | 12.22° C | 99% | 1006.6 hPa | 0 mm | - | 52 W/m² | - |
| 1777467096 | 12.22° C | 99% | 1006.7 hPa | 0 mm | - | 48 W/m² | - |
| 1777466793 | 12.22° C | 99% | 1006.7 hPa | 0 mm | - | 39 W/m² | - |
| 1777466492 | 12.22° C | 99% | 1006.9 hPa | 0 mm | - | 48 W/m² | - |
| 1777466187 | 12.22° C | 99% | 1006.9 hPa | 0 mm | - | 93 W/m² | - |
| 1777465884 | 12.22° C | 99% | 1006.6 hPa | 0 mm | - | 148 W/m² | - |
| 1777465580 | 12.22° C | 99% | 1006.3 hPa | 0 mm | - | 126 W/m² | - |
* Rain latest hour (hover to see other rain measurements)
** Current wind speed in m/s (hover to see current wind gust speed)